Flag for Germany Weather past 2 weeks in Hanau, Hesse, Germany

Now
66 °F

Passing clouds.


Feels Like: 66 °F
Forecast: 50 / 72 °F
Wind: 2 mph from East

Location: Frankfurt-M-Flughafen Airport

Current Time: Aug 27, 2014 at 7:16:47 PM

Latest Report: Aug 27, 2014 at 6:20 PM


Visibility: N/A

Pressure: 30.04 "Hg

Humidity: 56%

Dew point: 50 °F

Location of HanauLocation

Historic Weather in Hanau — Graph

°F

Hanau temperature yesterday

Maximum temperature yesterday: 66 °F (at 12:20 PM)
Minimum temperature yesterday: 54 °F (at 4:50 AM)
Average temperature yesterday: 59 °F

Past Weeks' High & Low Weather Summary

 TemperatureHumidityPressure
High73 °F (Aug 12, 4:20 PM)100% (Aug 14, 4:20 AM)30.12 "Hg (Aug 14, 4:20 AM)
Low46 °F (Aug 20, 5:20 AM)33% (Aug 12, 6:20 PM)29.65 "Hg (Aug 13, 2:20 PM)
Average59 °F77%29.93 "Hg
* Reported Aug 12 4:20 PM — Aug 27 4:20 PM, Hanau, Weather by CustomWeather, © 2014

Note: Actual official high and low records may vary slightly from our data, if they occured in-between our weather recording intervals... More about our weather records

Advertising

Hanau weather history for previous 24 hours

 ConditionsComfort  
Time TempWeatherWind HumidityBarometerVisibility
4:20 PM
Aug 27
70 °FScattered clouds.2 mph53%30.01 "HgN/A
3:50 PM70 °FScattered clouds.No wind50%30.04 "HgN/A
3:20 PM70 °FScattered clouds.No wind50%30.04 "HgN/A
2:50 PM68 °FScattered clouds.1 mph56%30.04 "HgN/A
2:20 PM64 °FScattered clouds.3 mph64%30.04 "HgN/A
1:50 PM66 °FScattered clouds.3 mph60%30.04 "HgN/A
1:20 PM66 °FScattered clouds.5 mph64%30.04 "HgN/A
12:20 PM63 °FPassing clouds.6 mph77%30.04 "HgN/A
11:50 AM63 °FScattered clouds.7 mph77%30.01 "HgN/A
11:20 AM61 °FScattered clouds.7 mph77%30.01 "HgN/A
10:50 AM59 °FPartly sunny.6 mph82%30.01 "HgN/A
10:20 AM61 °FScattered clouds.5 mph88%30.01 "HgN/A
9:50 AM59 °FBroken clouds.7 mph88%29.98 "HgN/A
9:20 AM57 °FPartly sunny.9 mph94%29.98 "HgN/A
8:50 AM57 °FScattered clouds.9 mph94%29.98 "HgN/A
8:20 AM57 °FPartly sunny.7 mph94%29.95 "HgN/A
7:50 AM55 °FPartly sunny.6 mph100%29.95 "HgN/A
7:20 AM55 °FPassing clouds.5 mph100%29.92 "HgN/A
6:50 AM55 °FPassing clouds.6 mph100%29.92 "HgN/A
6:20 AM55 °FPassing clouds.7 mph100%29.89 "HgN/A
5:50 AM55 °FPassing clouds.8 mph100%29.89 "HgN/A
5:20 AM55 °FPassing clouds.8 mph100%29.86 "HgN/A
4:50 AM55 °FPartly cloudy.9 mph100%29.86 "HgN/A
4:20 AM55 °FLight rain. Partly cloudy.6 mph100%29.83 "HgN/A
3:50 AM55 °FLight rain. Partly cloudy.7 mph100%29.83 "HgN/A
3:20 AM55 °FRain. Mostly cloudy.9 mph100%29.83 "HgN/A
2:20 AM57 °FRain. Passing clouds.10 mph100%29.80 "Hg5 mi
1:50 AM57 °FRain. Mostly cloudy.8 mph100%29.80 "HgN/A
1:20 AM57 °FRain. Partly cloudy.10 mph100%29.80 "HgN/A
12:50 AM57 °FRain. Mostly cloudy.9 mph100%29.80 "HgN/A
12:20 AM57 °FPassing clouds.6 mph100%29.77 "HgN/A
11:20 PM
Aug 26
57 °FHeavy rain. Mostly cloudy.10 mph100%29.77 "Hg5 mi
10:50 PM59 °FRain. Mostly cloudy.10 mph100%29.77 "HgN/A
10:20 PM59 °FRain. Partly cloudy.9 mph100%29.74 "HgN/A
9:50 PM59 °FRain. Partly cloudy.8 mph100%29.74 "HgN/A
9:20 PM59 °FRain. Broken clouds.7 mph100%29.74 "HgN/A
8:50 PM59 °FRain. Broken clouds.7 mph100%29.71 "HgN/A
8:20 PM59 °FLight rain. Broken clouds.7 mph100%29.71 "HgN/A
7:50 PM59 °FLight rain. Broken clouds.9 mph100%29.71 "HgN/A
7:20 PM59 °FLight rain. Broken clouds.10 mph100%29.71 "HgN/A
Weather by CustomWeather, © 2014

See weather overviewHow to use our weather pages